Chubbuck, ID

4:15 PM MDT on August 24, 2016 (GMT -0600)
Pocatello Regional

Weather History for KPIH - August, 2013

Change the Weather History Date:

Thursday, August 22, 2013

  Actual Average Record
Temperature  
Mean Temperature 73 °F 68 °F  
Max Temperature 93 °F 86 °F 98 °F (1991)
Min Temperature 53 °F 50 °F 34 °F (1966)
Degree Days  
Heating Degree Days 0 1  
Month to date heating degree days 0 9  
Since 1 June heating degree days 90 160  
Since 1 July heating degree days 0 29  
Cooling Degree Days 8 4  
Month to date cooling degree days 169 118  
Year to date cooling degree days 563 341  
Since 1 June cooling degree days 554 336  
Growing Degree Days 24 (Base 50)    
Moisture  
Dew Point 49 °F    
Average Humidity 54    
Maximum Humidity 86    
Minimum Humidity 21    
Precipitation  
Precipitation 0.01 in 0.02 in 0.64 in (1960)
Month to date precipitation 0.04 0.41  
Year to date precipitation 3.86 7.87  
Snow  
Snow 0.00 in - - ()
Month to date snowfall 0.0  
Since 1 June snowfall 0.0  
Since 1 July snowfall 0.0  
Snow Depth 0.00 in    
Sea Level Pressure  
Sea Level Pressure 29.96 in    
Wind  
Wind Speed 5 mph (NW)    
Max Wind Speed 26 mph    
Max Gust Speed 32 mph    
Visibility 10 miles    
Events Rain , Thunderstorm    
T = Trace of Precipitation, MM = Missing Value Source: NWS Daily Summary

Daily Weather History Graph

Daily Weather History Graph

Search for Another Location

Airport or City:

Trip Planner

Search our weather history database for the weather conditions in past years. The results will help you decide how hot, cold, wet, or windy it might be!

Date:

Astronomy

Aug. 22, 2013 Rise Set
Actual Time 6:44 AM MDT 8:21 PM MDT
Civil Twilight 6:14 AM MDT 8:50 PM MDT
Nautical Twilight 5:38 AM MDT 9:26 PM MDT
Astronomical Twilight 4:59 AM MDT 10:05 PM MDT
Moon 9:02 PM MDT (8/22) 8:41 AM MDT (8/22)
Length of Visible Light 14h 36m
Length of Day
13h 36m
Waning Gibbous, 96% of the Moon is Illuminated
Aug 22
Waning Gibbous
Aug 28
Last Quarter
Sep 5
New
Sep 12
First Quarter
Sep 19
Full

Hourly Weather History & Observations

Time (MDT) Temp. Dew Point Humidity Pressure Visibility Wind Dir Wind Speed Gust Speed Precip Events Conditions
12:53 AM 57.9 °F 53.1 °F 84% 30.00 in 10.0 mi ESE 4.6 mph - N/A   Clear
1:53 AM 59.0 °F 51.1 °F 75% 30.00 in 10.0 mi SSW 3.5 mph - N/A   Clear
2:53 AM 55.0 °F 50.0 °F 83% 30.04 in 10.0 mi North 4.6 mph - N/A   Clear
3:53 AM 57.9 °F 51.1 °F 78% 30.03 in 10.0 mi Calm Calm - N/A   Clear
4:53 AM 55.9 °F 50.0 °F 80% 30.04 in 10.0 mi Calm Calm - N/A   Clear
5:53 AM 54.0 °F 48.9 °F 83% 30.03 in 10.0 mi Calm Calm - N/A   Clear
6:53 AM 57.9 °F 51.1 °F 78% 30.03 in 10.0 mi Calm Calm - N/A   Clear
7:53 AM 62.1 °F 51.1 °F 67% 30.02 in 10.0 mi East 3.5 mph - N/A   Clear
8:53 AM 61.0 °F 54.0 °F 78% 30.06 in 10.0 mi Calm Calm - N/A   Scattered Clouds
9:53 AM 73.0 °F 52.0 °F 48% 30.04 in 10.0 mi Calm Calm - N/A   Clear
10:53 AM 80.1 °F 50.0 °F 35% 30.01 in 10.0 mi Variable 3.5 mph - N/A   Clear
11:53 AM 84.0 °F 48.9 °F 29% 30.00 in 10.0 mi ENE 5.8 mph - N/A   Clear
12:53 PM 88.0 °F 48.9 °F 26% 29.98 in 10.0 mi Variable 4.6 mph - N/A   Clear
1:53 PM 90.0 °F 48.0 °F 24% 29.95 in 10.0 mi NW 10.4 mph - N/A   Partly Cloudy
2:53 PM 88.0 °F 48.0 °F 25% 29.94 in 10.0 mi North 6.9 mph 16.1 mph N/A   Partly Cloudy
3:53 PM 91.0 °F 46.0 °F 21% 29.89 in 10.0 mi Variable 5.8 mph - N/A   Partly Cloudy
4:53 PM 91.9 °F 46.0 °F 21% 29.86 in 10.0 mi NW 5.8 mph - N/A   Scattered Clouds
5:29 PM 86.0 °F 48.2 °F 27% 30.00 in 10.0 mi WNW 5.8 mph - N/A Thunderstorm Thunderstorm
5:53 PM 82.9 °F 52.0 °F 34% 29.86 in 10.0 mi WNW 8.1 mph - 0.00 in Rain , Thunderstorm Light Thunderstorms and Rain
6:51 PM 82.4 °F 48.2 °F 30% 29.97 in 10.0 mi South 4.6 mph - N/A Thunderstorm Thunderstorm
6:53 PM 82.9 °F 48.0 °F 29% 29.83 in 10.0 mi South 3.5 mph - N/A Thunderstorm Thunderstorm
7:53 PM 78.8 °F 46.4 °F 32% 29.85 in 10.0 mi West 9.2 mph 23.0 mph N/A Thunderstorm Thunderstorm
8:53 PM 69.1 °F 52.0 °F 54% 29.92 in 10.0 mi NW 16.1 mph 24.2 mph N/A Thunderstorm Thunderstorm
9:53 PM 73.0 °F 48.9 °F 42% 29.91 in 10.0 mi Calm Calm - N/A Thunderstorm Thunderstorm
10:00 PM 69.8 °F 48.2 °F 46% 30.06 in 10.0 mi South 4.6 mph - N/A   Partly Cloudy
10:53 PM 70.0 °F 48.9 °F 47% 29.88 in 10.0 mi East 10.4 mph - N/A   Clear
11:53 PM 71.1 °F 46.9 °F 42% 29.86 in 10.0 mi Calm Calm - N/A   Clear